Dewpoint
73 73 72 73 72 73 72 72 73 72 73 73 73 73 73 73 75 74 74 74 75 75 74 75 76 76 77 76 76 76 76 75 75 75 74 74 73 73 72 71 71 69
73 74 74 73 73 75 74 73 73 73 73 73 73 73 73 73 74 75 74 74 75 75 75 76 75 75 74 75 75 74 73 75 73 77 74 73 73 73 74 72 72 71
73 74 74 73 73 74 74 74 74 74 73 74 73 72 72 74 73 75 74 74 75 75 75 75 75 75 75 74 74 74 73 73 73 74 74 73 74 74 73 73 73 72
73 74 73 73 73 74 74 74 73 74 74 74 74 73 73 73 73 73 74 77 74 75 75 75 75 75 74 74 74 73 74 73 74 73 73 73 74 74 74 73 75 73
73 74 73 73 73 74 74 74 73 73 74 74 74 74 74 74 74 73 74 74 75 74 74 75 75 75 75 74 74 73 74 74 74 74 73 73 73 74 73 73 72 72
73 74 74 73 73 73 73 73 73 73 73 73 73 74 74 73 74 73 73 73 74 75 75 75 75 75 75 74 74 74 74 74 74 74 73 73 73 73 74 74 72 72
73 73 73 73 73 73 73 73 73 74 73 73 73 72 73 73 73 73 73 73 73 74 74 74 75 75 75 74 73 74 74 73 73 73 73 73 73 74 74 73 73 72
73 73 73 73 73 72 72 72 72 72 72 73 72 72 72 72 72 72 73 73 73 73 74 74 74 74 74 74 74 74 74 74 74 73 72 73 72 72 73 73 73 72
73 73 73 73 72 72 72 71 71 72 72 71 72 71 72 71 71 72 72 73 73 73 73 73 73 74 74 74 74 73 73 73 74 73 73 72 72 72 73 73 73 72
72 73 73 72 72 72 71 71 71 71 72 71 71 71 71 71 71 71 71 72 72 73 72 72 73 73 74 74 74 74 73 73 73 73 73 73 73 73 73 73 72 71
72 72 72 72 72 71 71 71 70 70 70 70 70 70 70 70 71 71 71 71 71 71 72 72 72 72 73 73 74 74 74 73 73 73 73 73 73 73 75 73 72 72
71 71 72 72 72 71 71 70 70 69 69 69 69 69 69 70 70 70 71 70 70 70 71 71 72 72 72 73 73 73 73 73 73 73 73 73 73 73 71 72 71 71
71 71 71 71 72 71 71 70 70 69 68 68 69 68 68 68 69 70 71 70 70 70 70 71 71 72 72 72 72 73 73 73 73 73 73 73 72 72 71 70 70 71
71 71 71 71 71 71 70 70 69 68 68 67 68 67 67 67 67 68 69 70 70 70 70 71 71 71 72 72 72 72 73 73 73 73 73 72 72 71 71 71 70 70
69 70 70 70 71 70 70 70 69 69 69 71 72 70 70 68 66 66 68 69 69 70 70 71 71 71 72 72 72 73 73 73 73 73 72 71 71 71 71 71 71 71
69 70 69 70 70 70 70 70 69 70 71 73 72 73 73 73 71 70 67 67 68 69 70 71 71 72 74 75 75 73 73 73 73 73 72 71 71 70 70 71 71 71
70 69 70 69 69 69 69 71 71 70 72 72 72 73 72 72 69 68 68 67 66 67 70 71 71 72 73 70 71 74 74 72 72 73 73 72 71 70 70 70 71 71
69 69 69 69 70 70 69 69 71 71 71 71 72 72 71 72 70 68 69 69 69 69 70 70 70 66 64 65 66 67 71 73 72 71 72 72 72 71 70 70 70 70
69 69 69 69 69 70 70 70 70 71 70 70 71 72 71 70 70 69 69 70 69 68 68 68 66 64 62 63 64 64 66 71 73 72 72 72 72 71 71 71 70 70
69 69 69 69 69 69 70 70 70 71 71 71 71 70 70 71 71 70 70 69 69 68 67 66 65 63 61 61 62 63 65 68 71 73 73 72 72 71 71 71 70 70
70 69 69 69 69 69 69 69 69 69 70 70 70 70 70 70 71 70 70 71 69 67 66 64 63 59 59 60 59 61 63 70 71 73 72 72 72 71 71 70 70 70
68 68 68 68 68 68 68 68 67 68 69 69 69 69 70 70 71 71 71 70 69 67 66 64 64 58 58 58 58 59 63 69 72 72 71 71 71 71 71 71 71 71
68 68 68 67 67 67 67 67 67 67 68 69 67 67 68 68 69 70 70 70 70 68 65 64 63 59 56 56 56 57 62 68 72 73 72 71 71 72 72 72 72 72
66 67 67 67 67 67 67 68 68 68 68 69 67 67 67 68 70 70 71 70 71 68 66 63 62 61 55 54 55 56 61 65 70 71 71 71 72 72 71 71 73 75
65 65 65 66 66 66 67 67 68 68 68 68 68 68 68 68 69 69 69 69 69 67 67 62 61 61 55 54 54 55 61 64 68 70 70 70 71 70 69 68 70 73
64 65 65 65 65 66 68 67 67 66 66 67 67 67 67 67 68 68 64 62 63 62 61 61 61 60 58 53 53 54 56 63 66 70 69 68 70 70 66 66 64 62